Вершино-Шахтаминский

Россия / Забайкальский край     51°17′33″N   117°54′08″E
темп.,
°C
ветер,
м/с
пор.,
м/с
влажн.,
%
обл.,
%
осадки,
мм/ч
давл.,
гПа
погр.,
м
9 мая, вс
вс900:00+1сз22725 0.0 100813
03:00−1сз11785 0.0 100910
06:00−1сз11765 0.0 101010
09:00+6с134848 0.0 10091024
12:00+9с2431100 0.0 10072659
15:00+11сз2426100 0.0 10063032
18:00+10ссз342678 0.0 10062569
21:00+5сз004187 0.0 100810
10 мая, пн
пн1000:00+3зсз114974 0.0 100910
03:00+2ююз1151100 0.0 101010
06:00+2сз1156100 0.0 101020
09:00+7юв116475 0.5 1009354
12:00+11ююв2342100 0.1 10071812
15:00+13ю2431100 0.1 10042339
18:00+10ю2349100 0.1 10051314
21:00+7ссв3476100 0.4 1005222
11 мая, вт
вт1100:00+6с238685 0.1 1005148
03:00+3с239699 0.8 1005241
06:00+2ссз2597100 0.1 1006442
09:00+4ссв5980100 0.1 1006924
12:00+6ссв5970100 0.1 10041287
15:00+8ссв61059100 0.2 10021637
18:00+9ссв61256100 0.1 10011369
21:00+6ссз31066100 0.1 1002528
12 мая, ср
ср1200:00+4сз3770100 0.0 1003153
03:00+4ссз51466100 0.0 1002857
06:00+4ссз6146691 0.0 1003906
09:00+8ссз712430 0.0 10021336
12:00+12сз711336 0.0 10012196
15:00+13сз71029100 0.0 10003061
18:00+12зсз7113426 0.0 10002343
21:00+8з363876 0.0 1002109
13 мая, чт
чт1300:00+4з34465 0.0 100567
03:00+2з22495 0.0 100621
06:00+1з22500 0.0 100731
09:00+8зсз362833 0.0 10051508
12:00+11зсз4822100 0.0 10042443
15:00+11зсз5721100 0.0 10032428
18:00+11ссз4422100 0.0 10032116
21:00+6ссз1133100 0.0 100511